Index of /20260501/WXO-DD/model_gdps/15km/00/192
Name Last modified Size Description
Parent Directory -
20260501T00Z_MSC_GDPS_AbsoluteVorticity_IsbL-0200_LatLon0.15_PT192H.grib2 2026-05-01 04:36 1.2M
20260501T00Z_MSC_GDPS_AbsoluteVorticity_IsbL-0250_LatLon0.15_PT192H.grib2 2026-05-01 04:36 1.3M
20260501T00Z_MSC_GDPS_AbsoluteVorticity_IsbL-0500_LatLon0.15_PT192H.grib2 2026-05-01 04:36 1.5M
20260501T00Z_MSC_GDPS_AbsoluteVorticity_IsbL-0700_LatLon0.15_PT192H.grib2 2026-05-01 04:36 1.3M
20260501T00Z_MSC_GDPS_AbsoluteVorticity_IsbL-0850_LatLon0.15_PT192H.grib2 2026-05-01 04:36 1.6M
20260501T00Z_MSC_GDPS_AirTemp-Max_AGL-2m_LatLon0.15_PT192H.grib2 2026-05-01 04:36 744K
20260501T00Z_MSC_GDPS_AirTemp-Min_AGL-2m_LatLon0.15_PT192H.grib2 2026-05-01 04:36 794K
20260501T00Z_MSC_GDPS_AirTemp_AGL-120m_LatLon0.15_PT192H.grib2 2026-05-01 04:36 906K
20260501T00Z_MSC_GDPS_AirTemp_AGL-2m_LatLon0.15_PT192H.grib2 2026-05-01 04:36 1.0M
20260501T00Z_MSC_GDPS_AirTemp_AGL-40m_LatLon0.15_PT192H.grib2 2026-05-01 04:36 811K
20260501T00Z_MSC_GDPS_AirTemp_AGL-80m_LatLon0.15_PT192H.grib2 2026-05-01 04:36 799K
20260501T00Z_MSC_GDPS_AirTemp_IsbL-0001_LatLon0.15_PT192H.grib2 2026-05-01 04:36 667K
20260501T00Z_MSC_GDPS_AirTemp_IsbL-0005_LatLon0.15_PT192H.grib2 2026-05-01 04:36 701K
20260501T00Z_MSC_GDPS_AirTemp_IsbL-0010_LatLon0.15_PT192H.grib2 2026-05-01 04:36 700K
20260501T00Z_MSC_GDPS_AirTemp_IsbL-0020_LatLon0.15_PT192H.grib2 2026-05-01 04:36 791K
20260501T00Z_MSC_GDPS_AirTemp_IsbL-0030_LatLon0.15_PT192H.grib2 2026-05-01 04:36 839K
20260501T00Z_MSC_GDPS_AirTemp_IsbL-0050_LatLon0.15_PT192H.grib2 2026-05-01 04:36 807K
20260501T00Z_MSC_GDPS_AirTemp_IsbL-0100_LatLon0.15_PT192H.grib2 2026-05-01 04:36 972K
20260501T00Z_MSC_GDPS_AirTemp_IsbL-0150_LatLon0.15_PT192H.grib2 2026-05-01 04:36 1.0M
20260501T00Z_MSC_GDPS_AirTemp_IsbL-0175_LatLon0.15_PT192H.grib2 2026-05-01 04:36 1.0M
20260501T00Z_MSC_GDPS_AirTemp_IsbL-0200_LatLon0.15_PT192H.grib2 2026-05-01 04:36 971K
20260501T00Z_MSC_GDPS_AirTemp_IsbL-0225_LatLon0.15_PT192H.grib2 2026-05-01 04:36 971K
20260501T00Z_MSC_GDPS_AirTemp_IsbL-0250_LatLon0.15_PT192H.grib2 2026-05-01 04:36 1.0M
20260501T00Z_MSC_GDPS_AirTemp_IsbL-0275_LatLon0.15_PT192H.grib2 2026-05-01 04:36 1.0M
20260501T00Z_MSC_GDPS_AirTemp_IsbL-0300_LatLon0.15_PT192H.grib2 2026-05-01 04:36 949K
20260501T00Z_MSC_GDPS_AirTemp_IsbL-0350_LatLon0.15_PT192H.grib2 2026-05-01 04:36 932K
20260501T00Z_MSC_GDPS_AirTemp_IsbL-0400_LatLon0.15_PT192H.grib2 2026-05-01 04:36 942K
20260501T00Z_MSC_GDPS_AirTemp_IsbL-0450_LatLon0.15_PT192H.grib2 2026-05-01 04:36 966K
20260501T00Z_MSC_GDPS_AirTemp_IsbL-0500_LatLon0.15_PT192H.grib2 2026-05-01 04:36 1.0M
20260501T00Z_MSC_GDPS_AirTemp_IsbL-0550_LatLon0.15_PT192H.grib2 2026-05-01 04:36 805K
20260501T00Z_MSC_GDPS_AirTemp_IsbL-0600_LatLon0.15_PT192H.grib2 2026-05-01 04:36 897K
20260501T00Z_MSC_GDPS_AirTemp_IsbL-0650_LatLon0.15_PT192H.grib2 2026-05-01 04:36 921K
20260501T00Z_MSC_GDPS_AirTemp_IsbL-0700_LatLon0.15_PT192H.grib2 2026-05-01 04:36 955K
20260501T00Z_MSC_GDPS_AirTemp_IsbL-0750_LatLon0.15_PT192H.grib2 2026-05-01 04:36 1.0M
20260501T00Z_MSC_GDPS_AirTemp_IsbL-0800_LatLon0.15_PT192H.grib2 2026-05-01 04:36 1.1M
20260501T00Z_MSC_GDPS_AirTemp_IsbL-0850_LatLon0.15_PT192H.grib2 2026-05-01 04:36 1.1M
20260501T00Z_MSC_GDPS_AirTemp_IsbL-0875_LatLon0.15_PT192H.grib2 2026-05-01 04:36 1.2M
20260501T00Z_MSC_GDPS_AirTemp_IsbL-0900_LatLon0.15_PT192H.grib2 2026-05-01 04:36 1.1M
20260501T00Z_MSC_GDPS_AirTemp_IsbL-0925_LatLon0.15_PT192H.grib2 2026-05-01 04:36 1.1M
20260501T00Z_MSC_GDPS_AirTemp_IsbL-0950_LatLon0.15_PT192H.grib2 2026-05-01 04:36 1.1M
20260501T00Z_MSC_GDPS_AirTemp_IsbL-0970_LatLon0.15_PT192H.grib2 2026-05-01 04:36 1.1M
20260501T00Z_MSC_GDPS_AirTemp_IsbL-0985_LatLon0.15_PT192H.grib2 2026-05-01 04:36 1.1M
20260501T00Z_MSC_GDPS_AirTemp_IsbL-1000_LatLon0.15_PT192H.grib2 2026-05-01 04:36 1.1M
20260501T00Z_MSC_GDPS_AirTemp_IsbL-1015_LatLon0.15_PT192H.grib2 2026-05-01 04:36 1.1M
20260501T00Z_MSC_GDPS_Albedo_Sfc_LatLon0.15_PT192H.grib2 2026-05-01 04:36 243K
20260501T00Z_MSC_GDPS_CAPE_Sfc_LatLon0.15_PT192H.grib2 2026-05-01 04:36 3.9M
20260501T00Z_MSC_GDPS_CIN_Sfc_LatLon0.15_PT192H.grib2 2026-05-01 04:36 2.9M
20260501T00Z_MSC_GDPS_CloudWater_EAtm_LatLon0.15_PT192H.grib2 2026-05-01 04:36 541K
20260501T00Z_MSC_GDPS_ConvectivePrecip-Accum_Sfc_LatLon0.15_PT192H.grib2 2026-05-01 04:36 3.9M
20260501T00Z_MSC_GDPS_DewPointDepression_AGL-2m_LatLon0.15_PT192H.grib2 2026-05-01 04:36 761K
20260501T00Z_MSC_GDPS_DewPointDepression_IsbL-0010_LatLon0.15_PT192H.grib2 2026-05-01 04:36 81K
20260501T00Z_MSC_GDPS_DewPointDepression_IsbL-0020_LatLon0.15_PT192H.grib2 2026-05-01 04:36 80K
20260501T00Z_MSC_GDPS_DewPointDepression_IsbL-0030_LatLon0.15_PT192H.grib2 2026-05-01 04:36 93K
20260501T00Z_MSC_GDPS_DewPointDepression_IsbL-0050_LatLon0.15_PT192H.grib2 2026-05-01 04:36 382K
20260501T00Z_MSC_GDPS_DewPointDepression_IsbL-0100_LatLon0.15_PT192H.grib2 2026-05-01 04:36 401K
20260501T00Z_MSC_GDPS_DewPointDepression_IsbL-0150_LatLon0.15_PT192H.grib2 2026-05-01 04:36 495K
20260501T00Z_MSC_GDPS_DewPointDepression_IsbL-0175_LatLon0.15_PT192H.grib2 2026-05-01 04:36 584K
20260501T00Z_MSC_GDPS_DewPointDepression_IsbL-0200_LatLon0.15_PT192H.grib2 2026-05-01 04:36 688K
20260501T00Z_MSC_GDPS_DewPointDepression_IsbL-0225_LatLon0.15_PT192H.grib2 2026-05-01 04:36 772K
20260501T00Z_MSC_GDPS_DewPointDepression_IsbL-0250_LatLon0.15_PT192H.grib2 2026-05-01 04:36 869K
20260501T00Z_MSC_GDPS_DewPointDepression_IsbL-0275_LatLon0.15_PT192H.grib2 2026-05-01 04:36 889K
20260501T00Z_MSC_GDPS_DewPointDepression_IsbL-0300_LatLon0.15_PT192H.grib2 2026-05-01 04:36 932K
20260501T00Z_MSC_GDPS_DewPointDepression_IsbL-0350_LatLon0.15_PT192H.grib2 2026-05-01 04:36 954K
20260501T00Z_MSC_GDPS_DewPointDepression_IsbL-0400_LatLon0.15_PT192H.grib2 2026-05-01 04:36 1.0M
20260501T00Z_MSC_GDPS_DewPointDepression_IsbL-0450_LatLon0.15_PT192H.grib2 2026-05-01 04:36 1.0M
20260501T00Z_MSC_GDPS_DewPointDepression_IsbL-0500_LatLon0.15_PT192H.grib2 2026-05-01 04:36 1.0M
20260501T00Z_MSC_GDPS_DewPointDepression_IsbL-0550_LatLon0.15_PT192H.grib2 2026-05-01 04:36 1.0M
20260501T00Z_MSC_GDPS_DewPointDepression_IsbL-0600_LatLon0.15_PT192H.grib2 2026-05-01 04:36 1.1M
20260501T00Z_MSC_GDPS_DewPointDepression_IsbL-0650_LatLon0.15_PT192H.grib2 2026-05-01 04:36 1.1M
20260501T00Z_MSC_GDPS_DewPointDepression_IsbL-0700_LatLon0.15_PT192H.grib2 2026-05-01 04:36 1.1M
20260501T00Z_MSC_GDPS_DewPointDepression_IsbL-0750_LatLon0.15_PT192H.grib2 2026-05-01 04:36 1.1M
20260501T00Z_MSC_GDPS_DewPointDepression_IsbL-0800_LatLon0.15_PT192H.grib2 2026-05-01 04:36 1.2M
20260501T00Z_MSC_GDPS_DewPointDepression_IsbL-0850_LatLon0.15_PT192H.grib2 2026-05-01 04:36 1.2M
20260501T00Z_MSC_GDPS_DewPointDepression_IsbL-0875_LatLon0.15_PT192H.grib2 2026-05-01 04:36 1.1M
20260501T00Z_MSC_GDPS_DewPointDepression_IsbL-0900_LatLon0.15_PT192H.grib2 2026-05-01 04:36 1.1M
20260501T00Z_MSC_GDPS_DewPointDepression_IsbL-0925_LatLon0.15_PT192H.grib2 2026-05-01 04:36 1.0M
20260501T00Z_MSC_GDPS_DewPointDepression_IsbL-0950_LatLon0.15_PT192H.grib2 2026-05-01 04:36 1.0M
20260501T00Z_MSC_GDPS_DewPointDepression_IsbL-0970_LatLon0.15_PT192H.grib2 2026-05-01 04:36 1.0M
20260501T00Z_MSC_GDPS_DewPointDepression_IsbL-0985_LatLon0.15_PT192H.grib2 2026-05-01 04:36 1.0M
20260501T00Z_MSC_GDPS_DewPointDepression_IsbL-1000_LatLon0.15_PT192H.grib2 2026-05-01 04:36 970K
20260501T00Z_MSC_GDPS_DewPointDepression_IsbL-1015_LatLon0.15_PT192H.grib2 2026-05-01 04:36 914K
20260501T00Z_MSC_GDPS_DewPoint_AGL-2m_LatLon0.15_PT192H.grib2 2026-05-01 04:36 606K
20260501T00Z_MSC_GDPS_DownwardLongwaveRadiationFlux-Accum_Sfc_LatLon0.15_PT192H.grib2 2026-05-01 04:36 664K
20260501T00Z_MSC_GDPS_DownwardShortwaveRadiationFlux-Accum_NTAtm_LatLon0.15_PT192H.grib2 2026-05-01 04:36 213K
20260501T00Z_MSC_GDPS_DownwardShortwaveRadiationFlux-Accum_Sfc_LatLon0.15_PT192H.grib2 2026-05-01 04:36 853K
20260501T00Z_MSC_GDPS_FreezingRain-Accum12h_Sfc_LatLon0.15_PT192H.grib2 2026-05-01 04:36 111K
20260501T00Z_MSC_GDPS_FreezingRain-Accum24h_Sfc_LatLon0.15_PT192H.grib2 2026-05-01 04:36 153K
20260501T00Z_MSC_GDPS_FreezingRain-Accum6h_Sfc_LatLon0.15_PT192H.grib2 2026-05-01 04:36 65K
20260501T00Z_MSC_GDPS_FreezingRain-Accum_Sfc_LatLon0.15_PT192H.grib2 2026-05-01 04:36 463K
20260501T00Z_MSC_GDPS_GeopotentialHeight_IsbL-0001_LatLon0.15_PT192H.grib2 2026-05-01 04:36 432K
20260501T00Z_MSC_GDPS_GeopotentialHeight_IsbL-0005_LatLon0.15_PT192H.grib2 2026-05-01 04:36 492K
20260501T00Z_MSC_GDPS_GeopotentialHeight_IsbL-0010_LatLon0.15_PT192H.grib2 2026-05-01 04:36 476K
20260501T00Z_MSC_GDPS_GeopotentialHeight_IsbL-0020_LatLon0.15_PT192H.grib2 2026-05-01 04:36 413K
20260501T00Z_MSC_GDPS_GeopotentialHeight_IsbL-0030_LatLon0.15_PT192H.grib2 2026-05-01 04:36 417K
20260501T00Z_MSC_GDPS_GeopotentialHeight_IsbL-0050_LatLon0.15_PT192H.grib2 2026-05-01 04:36 567K
20260501T00Z_MSC_GDPS_GeopotentialHeight_IsbL-0100_LatLon0.15_PT192H.grib2 2026-05-01 04:36 607K
20260501T00Z_MSC_GDPS_GeopotentialHeight_IsbL-0150_LatLon0.15_PT192H.grib2 2026-05-01 04:36 626K
20260501T00Z_MSC_GDPS_GeopotentialHeight_IsbL-0175_LatLon0.15_PT192H.grib2 2026-05-01 04:36 631K
20260501T00Z_MSC_GDPS_GeopotentialHeight_IsbL-0200_LatLon0.15_PT192H.grib2 2026-05-01 04:36 634K
20260501T00Z_MSC_GDPS_GeopotentialHeight_IsbL-0225_LatLon0.15_PT192H.grib2 2026-05-01 04:36 632K
20260501T00Z_MSC_GDPS_GeopotentialHeight_IsbL-0250_LatLon0.15_PT192H.grib2 2026-05-01 04:36 638K
20260501T00Z_MSC_GDPS_GeopotentialHeight_IsbL-0275_LatLon0.15_PT192H.grib2 2026-05-01 04:36 641K
20260501T00Z_MSC_GDPS_GeopotentialHeight_IsbL-0300_LatLon0.15_PT192H.grib2 2026-05-01 04:36 633K
20260501T00Z_MSC_GDPS_GeopotentialHeight_IsbL-0350_LatLon0.15_PT192H.grib2 2026-05-01 04:36 628K
20260501T00Z_MSC_GDPS_GeopotentialHeight_IsbL-0400_LatLon0.15_PT192H.grib2 2026-05-01 04:36 622K
20260501T00Z_MSC_GDPS_GeopotentialHeight_IsbL-0450_LatLon0.15_PT192H.grib2 2026-05-01 04:36 614K
20260501T00Z_MSC_GDPS_GeopotentialHeight_IsbL-0500_LatLon0.15_PT192H.grib2 2026-05-01 04:36 534K
20260501T00Z_MSC_GDPS_GeopotentialHeight_IsbL-0550_LatLon0.15_PT192H.grib2 2026-05-01 04:36 526K
20260501T00Z_MSC_GDPS_GeopotentialHeight_IsbL-0600_LatLon0.15_PT192H.grib2 2026-05-01 04:36 523K
20260501T00Z_MSC_GDPS_GeopotentialHeight_IsbL-0650_LatLon0.15_PT192H.grib2 2026-05-01 04:36 687K
20260501T00Z_MSC_GDPS_GeopotentialHeight_IsbL-0700_LatLon0.15_PT192H.grib2 2026-05-01 04:36 688K
20260501T00Z_MSC_GDPS_GeopotentialHeight_IsbL-0750_LatLon0.15_PT192H.grib2 2026-05-01 04:36 693K
20260501T00Z_MSC_GDPS_GeopotentialHeight_IsbL-0800_LatLon0.15_PT192H.grib2 2026-05-01 04:36 701K
20260501T00Z_MSC_GDPS_GeopotentialHeight_IsbL-0850_LatLon0.15_PT192H.grib2 2026-05-01 04:36 713K
20260501T00Z_MSC_GDPS_GeopotentialHeight_IsbL-0875_LatLon0.15_PT192H.grib2 2026-05-01 04:36 718K
20260501T00Z_MSC_GDPS_GeopotentialHeight_IsbL-0900_LatLon0.15_PT192H.grib2 2026-05-01 04:36 726K
20260501T00Z_MSC_GDPS_GeopotentialHeight_IsbL-0925_LatLon0.15_PT192H.grib2 2026-05-01 04:36 732K
20260501T00Z_MSC_GDPS_GeopotentialHeight_IsbL-0950_LatLon0.15_PT192H.grib2 2026-05-01 04:36 739K
20260501T00Z_MSC_GDPS_GeopotentialHeight_IsbL-0970_LatLon0.15_PT192H.grib2 2026-05-01 04:36 749K
20260501T00Z_MSC_GDPS_GeopotentialHeight_IsbL-0985_LatLon0.15_PT192H.grib2 2026-05-01 04:36 764K
20260501T00Z_MSC_GDPS_GeopotentialHeight_IsbL-1000_LatLon0.15_PT192H.grib2 2026-05-01 04:36 784K
20260501T00Z_MSC_GDPS_GeopotentialHeight_IsbL-1015_LatLon0.15_PT192H.grib2 2026-05-01 04:36 806K
20260501T00Z_MSC_GDPS_Humidex_Sfc_LatLon0.15_PT192H.grib2 2026-05-01 04:36 5.3M
20260501T00Z_MSC_GDPS_IcePellets-Accum12h_Sfc_LatLon0.15_PT192H.grib2 2026-05-01 04:36 35K
20260501T00Z_MSC_GDPS_IcePellets-Accum24h_Sfc_LatLon0.15_PT192H.grib2 2026-05-01 04:36 48K
20260501T00Z_MSC_GDPS_IcePellets-Accum6h_Sfc_LatLon0.15_PT192H.grib2 2026-05-01 04:36 26K
20260501T00Z_MSC_GDPS_IcePellets-Accum_Sfc_LatLon0.15_PT192H.grib2 2026-05-01 04:36 179K
20260501T00Z_MSC_GDPS_KIndex_Sfc_LatLon0.15_PT192H.grib2 2026-05-01 04:36 6.5M
20260501T00Z_MSC_GDPS_LatentHeatNetFlux_Sfc_LatLon0.15_PT192H.grib2 2026-05-01 04:36 670K
20260501T00Z_MSC_GDPS_LiftedIndex-MU-VT_IsbL-0500_LatLon0.15_PT192H.grib2 2026-05-01 04:36 5.4M
20260501T00Z_MSC_GDPS_NetLongwaveRadiationFlux-Accum_Sfc_LatLon0.15_PT192H.grib2 2026-05-01 04:36 890K
20260501T00Z_MSC_GDPS_NetShortwaveRadiationFlux-Accum_Sfc_LatLon0.15_PT192H.grib2 2026-05-01 04:36 849K
20260501T00Z_MSC_GDPS_O3MixingRatio_Sfc_LatLon0.15_PT192H.grib2 2026-05-01 04:51 1.9M
20260501T00Z_MSC_GDPS_O3_EAtm_LatLon0.15_PT192H.grib2 2026-05-01 04:51 2.4M
20260501T00Z_MSC_GDPS_PlanetaryBoundaryLayerHeight_Sfc_LatLon0.15_PT192H.grib2 2026-05-01 04:36 2.4M
20260501T00Z_MSC_GDPS_Precip-Accum12h_Sfc_LatLon0.15_PT192H.grib2 2026-05-01 04:36 4.1M
20260501T00Z_MSC_GDPS_Precip-Accum24h_Sfc_LatLon0.15_PT192H.grib2 2026-05-01 04:36 4.6M
20260501T00Z_MSC_GDPS_Precip-Accum6h_Sfc_LatLon0.15_PT192H.grib2 2026-05-01 04:36 3.6M
20260501T00Z_MSC_GDPS_Precip-Accum_Sfc_LatLon0.15_PT192H.grib2 2026-05-01 04:36 5.1M
20260501T00Z_MSC_GDPS_PrecipRate_Sfc_LatLon0.15_PT192H.grib2 2026-05-01 04:36 2.7M
20260501T00Z_MSC_GDPS_PrecipType-Instant_Sfc_LatLon0.15_PT192H.grib2 2026-05-01 04:36 1.5M
20260501T00Z_MSC_GDPS_Pressure_MSL_LatLon0.15_PT192H.grib2 2026-05-01 04:36 720K
20260501T00Z_MSC_GDPS_Pressure_PVU-1.5_LatLon0.15_PT192H.grib2 2026-05-01 04:36 5.8M
20260501T00Z_MSC_GDPS_Pressure_PVU-1_LatLon0.15_PT192H.grib2 2026-05-01 04:36 6.0M
20260501T00Z_MSC_GDPS_Pressure_PVU-2_LatLon0.15_PT192H.grib2 2026-05-01 04:36 5.6M
20260501T00Z_MSC_GDPS_Pressure_Sfc_LatLon0.15_PT192H.grib2 2026-05-01 04:36 1.1M
20260501T00Z_MSC_GDPS_RadiativeTemp_Sfc_LatLon0.15_PT192H.grib2 2026-05-01 04:36 658K
20260501T00Z_MSC_GDPS_Rain-Accum12h_Sfc_LatLon0.15_PT192H.grib2 2026-05-01 04:36 2.7M
20260501T00Z_MSC_GDPS_Rain-Accum24h_Sfc_LatLon0.15_PT192H.grib2 2026-05-01 04:36 3.3M
20260501T00Z_MSC_GDPS_Rain-Accum6h_Sfc_LatLon0.15_PT192H.grib2 2026-05-01 04:36 2.3M
20260501T00Z_MSC_GDPS_Rain-Accum_Sfc_LatLon0.15_PT192H.grib2 2026-05-01 04:36 4.0M
20260501T00Z_MSC_GDPS_RelativeHumidity_AGL-2m_LatLon0.15_PT192H.grib2 2026-05-01 04:36 1.0M
20260501T00Z_MSC_GDPS_RelativeHumidity_IsbL-0010_LatLon0.15_PT192H.grib2 2026-05-01 04:36 197K
20260501T00Z_MSC_GDPS_RelativeHumidity_IsbL-0020_LatLon0.15_PT192H.grib2 2026-05-01 04:36 162K
20260501T00Z_MSC_GDPS_RelativeHumidity_IsbL-0030_LatLon0.15_PT192H.grib2 2026-05-01 04:36 184K
20260501T00Z_MSC_GDPS_RelativeHumidity_IsbL-0050_LatLon0.15_PT192H.grib2 2026-05-01 04:36 333K
20260501T00Z_MSC_GDPS_RelativeHumidity_IsbL-0100_LatLon0.15_PT192H.grib2 2026-05-01 04:36 502K
20260501T00Z_MSC_GDPS_RelativeHumidity_IsbL-0150_LatLon0.15_PT192H.grib2 2026-05-01 04:36 679K
20260501T00Z_MSC_GDPS_RelativeHumidity_IsbL-0175_LatLon0.15_PT192H.grib2 2026-05-01 04:36 793K
20260501T00Z_MSC_GDPS_RelativeHumidity_IsbL-0200_LatLon0.15_PT192H.grib2 2026-05-01 04:36 711K
20260501T00Z_MSC_GDPS_RelativeHumidity_IsbL-0225_LatLon0.15_PT192H.grib2 2026-05-01 04:36 797K
20260501T00Z_MSC_GDPS_RelativeHumidity_IsbL-0250_LatLon0.15_PT192H.grib2 2026-05-01 04:36 868K
20260501T00Z_MSC_GDPS_RelativeHumidity_IsbL-0275_LatLon0.15_PT192H.grib2 2026-05-01 04:36 891K
20260501T00Z_MSC_GDPS_RelativeHumidity_IsbL-0300_LatLon0.15_PT192H.grib2 2026-05-01 04:36 935K
20260501T00Z_MSC_GDPS_RelativeHumidity_IsbL-0350_LatLon0.15_PT192H.grib2 2026-05-01 04:36 948K
20260501T00Z_MSC_GDPS_RelativeHumidity_IsbL-0400_LatLon0.15_PT192H.grib2 2026-05-01 04:36 1.0M
20260501T00Z_MSC_GDPS_RelativeHumidity_IsbL-0450_LatLon0.15_PT192H.grib2 2026-05-01 04:36 1.0M
20260501T00Z_MSC_GDPS_RelativeHumidity_IsbL-0500_LatLon0.15_PT192H.grib2 2026-05-01 04:36 1.0M
20260501T00Z_MSC_GDPS_RelativeHumidity_IsbL-0550_LatLon0.15_PT192H.grib2 2026-05-01 04:36 1.0M
20260501T00Z_MSC_GDPS_RelativeHumidity_IsbL-0600_LatLon0.15_PT192H.grib2 2026-05-01 04:36 1.0M
20260501T00Z_MSC_GDPS_RelativeHumidity_IsbL-0650_LatLon0.15_PT192H.grib2 2026-05-01 04:36 1.1M
20260501T00Z_MSC_GDPS_RelativeHumidity_IsbL-0700_LatLon0.15_PT192H.grib2 2026-05-01 04:36 1.1M
20260501T00Z_MSC_GDPS_RelativeHumidity_IsbL-0750_LatLon0.15_PT192H.grib2 2026-05-01 04:36 1.1M
20260501T00Z_MSC_GDPS_RelativeHumidity_IsbL-0800_LatLon0.15_PT192H.grib2 2026-05-01 04:36 1.2M
20260501T00Z_MSC_GDPS_RelativeHumidity_IsbL-0850_LatLon0.15_PT192H.grib2 2026-05-01 04:36 1.3M
20260501T00Z_MSC_GDPS_RelativeHumidity_IsbL-0875_LatLon0.15_PT192H.grib2 2026-05-01 04:36 1.3M
20260501T00Z_MSC_GDPS_RelativeHumidity_IsbL-0900_LatLon0.15_PT192H.grib2 2026-05-01 04:36 1.2M
20260501T00Z_MSC_GDPS_RelativeHumidity_IsbL-0925_LatLon0.15_PT192H.grib2 2026-05-01 04:36 1.2M
20260501T00Z_MSC_GDPS_RelativeHumidity_IsbL-0950_LatLon0.15_PT192H.grib2 2026-05-01 04:36 1.2M
20260501T00Z_MSC_GDPS_RelativeHumidity_IsbL-0970_LatLon0.15_PT192H.grib2 2026-05-01 04:36 1.2M
20260501T00Z_MSC_GDPS_RelativeHumidity_IsbL-0985_LatLon0.15_PT192H.grib2 2026-05-01 04:36 1.2M
20260501T00Z_MSC_GDPS_RelativeHumidity_IsbL-1000_LatLon0.15_PT192H.grib2 2026-05-01 04:36 1.1M
20260501T00Z_MSC_GDPS_RelativeHumidity_IsbL-1015_LatLon0.15_PT192H.grib2 2026-05-01 04:36 1.0M
20260501T00Z_MSC_GDPS_RelativeVorticity_IsbL-0200_LatLon0.15_PT192H.grib2 2026-05-01 04:36 1.2M
20260501T00Z_MSC_GDPS_RelativeVorticity_IsbL-0250_LatLon0.15_PT192H.grib2 2026-05-01 04:36 1.3M
20260501T00Z_MSC_GDPS_RelativeVorticity_IsbL-0500_LatLon0.15_PT192H.grib2 2026-05-01 04:36 1.5M
20260501T00Z_MSC_GDPS_RelativeVorticity_IsbL-0700_LatLon0.15_PT192H.grib2 2026-05-01 04:36 1.3M
20260501T00Z_MSC_GDPS_RelativeVorticity_IsbL-0850_LatLon0.15_PT192H.grib2 2026-05-01 04:36 1.6M
20260501T00Z_MSC_GDPS_Runoff-Accum_Sfc_LatLon0.15_PT192H.grib2 2026-05-01 04:36 130K
20260501T00Z_MSC_GDPS_SensibleHeatNetFlux_Sfc_LatLon0.15_PT192H.grib2 2026-05-01 04:36 445K
20260501T00Z_MSC_GDPS_ShowalterIndex_IsbL-0500_LatLon0.15_PT192H.grib2 2026-05-01 04:36 6.2M
20260501T00Z_MSC_GDPS_Snow-Accum12h_Sfc_LatLon0.15_PT192H.grib2 2026-05-01 04:36 1.3M
20260501T00Z_MSC_GDPS_Snow-Accum24h_Sfc_LatLon0.15_PT192H.grib2 2026-05-01 04:36 1.6M
20260501T00Z_MSC_GDPS_Snow-Accum6h_Sfc_LatLon0.15_PT192H.grib2 2026-05-01 04:36 1.3M
20260501T00Z_MSC_GDPS_Snow-Accum_Sfc_LatLon0.15_PT192H.grib2 2026-05-01 04:36 2.1M
20260501T00Z_MSC_GDPS_SnowDensity_Sfc_LatLon0.15_PT192H.grib2 2026-05-01 04:36 258K
20260501T00Z_MSC_GDPS_SnowDepth_Sfc_LatLon0.15_PT192H.grib2 2026-05-01 04:36 1.7M
20260501T00Z_MSC_GDPS_SoilTemp_DBS-0to10cm_LatLon0.15_PT192H.grib2 2026-05-01 04:36 514K
20260501T00Z_MSC_GDPS_SoilTemp_Sfc_LatLon0.15_PT192H.grib2 2026-05-01 04:36 563K
20260501T00Z_MSC_GDPS_SoilVolumetricIceContent_Sfc_LatLon0.15_PT192H.grib2 2026-05-01 04:36 181K
20260501T00Z_MSC_GDPS_SoilVolumetricWaterContent_DBS-0to10cm_LatLon0.15_PT192H.grib2 2026-05-01 04:36 597K
20260501T00Z_MSC_GDPS_SoilVolumetricWaterContent_DBS-0to1cm_LatLon0.15_PT192H.grib2 2026-05-01 04:36 653K
20260501T00Z_MSC_GDPS_SpecificHumidity_AGL-120m_LatLon0.15_PT192H.grib2 2026-05-01 04:36 1.1M
20260501T00Z_MSC_GDPS_SpecificHumidity_AGL-2m_LatLon0.15_PT192H.grib2 2026-05-01 04:36 1.2M
20260501T00Z_MSC_GDPS_SpecificHumidity_AGL-40m_LatLon0.15_PT192H.grib2 2026-05-01 04:36 1.1M
20260501T00Z_MSC_GDPS_SpecificHumidity_AGL-80m_LatLon0.15_PT192H.grib2 2026-05-01 04:36 1.1M
20260501T00Z_MSC_GDPS_SpecificHumidity_IsbL-0001_LatLon0.15_PT192H.grib2 2026-05-01 04:36 1.2M
20260501T00Z_MSC_GDPS_SpecificHumidity_IsbL-0005_LatLon0.15_PT192H.grib2 2026-05-01 04:36 1.0M
20260501T00Z_MSC_GDPS_SpecificHumidity_IsbL-0010_LatLon0.15_PT192H.grib2 2026-05-01 04:36 1.2M
20260501T00Z_MSC_GDPS_SpecificHumidity_IsbL-0020_LatLon0.15_PT192H.grib2 2026-05-01 04:36 1.2M
20260501T00Z_MSC_GDPS_SpecificHumidity_IsbL-0030_LatLon0.15_PT192H.grib2 2026-05-01 04:36 1.4M
20260501T00Z_MSC_GDPS_SpecificHumidity_IsbL-0050_LatLon0.15_PT192H.grib2 2026-05-01 04:36 1.2M
20260501T00Z_MSC_GDPS_SpecificHumidity_IsbL-0100_LatLon0.15_PT192H.grib2 2026-05-01 04:36 1.2M
20260501T00Z_MSC_GDPS_SpecificHumidity_IsbL-0150_LatLon0.15_PT192H.grib2 2026-05-01 04:36 1.3M
20260501T00Z_MSC_GDPS_SpecificHumidity_IsbL-0175_LatLon0.15_PT192H.grib2 2026-05-01 04:36 1.3M
20260501T00Z_MSC_GDPS_SpecificHumidity_IsbL-0200_LatLon0.15_PT192H.grib2 2026-05-01 04:36 1.3M
20260501T00Z_MSC_GDPS_SpecificHumidity_IsbL-0225_LatLon0.15_PT192H.grib2 2026-05-01 04:36 1.3M
20260501T00Z_MSC_GDPS_SpecificHumidity_IsbL-0250_LatLon0.15_PT192H.grib2 2026-05-01 04:36 1.2M
20260501T00Z_MSC_GDPS_SpecificHumidity_IsbL-0275_LatLon0.15_PT192H.grib2 2026-05-01 04:36 1.3M
20260501T00Z_MSC_GDPS_SpecificHumidity_IsbL-0300_LatLon0.15_PT192H.grib2 2026-05-01 04:36 1.2M
20260501T00Z_MSC_GDPS_SpecificHumidity_IsbL-0350_LatLon0.15_PT192H.grib2 2026-05-01 04:36 1.2M
20260501T00Z_MSC_GDPS_SpecificHumidity_IsbL-0400_LatLon0.15_PT192H.grib2 2026-05-01 04:36 1.5M
20260501T00Z_MSC_GDPS_SpecificHumidity_IsbL-0450_LatLon0.15_PT192H.grib2 2026-05-01 04:36 1.3M
20260501T00Z_MSC_GDPS_SpecificHumidity_IsbL-0500_LatLon0.15_PT192H.grib2 2026-05-01 04:36 1.4M
20260501T00Z_MSC_GDPS_SpecificHumidity_IsbL-0550_LatLon0.15_PT192H.grib2 2026-05-01 04:36 1.6M
20260501T00Z_MSC_GDPS_SpecificHumidity_IsbL-0600_LatLon0.15_PT192H.grib2 2026-05-01 04:36 1.4M
20260501T00Z_MSC_GDPS_SpecificHumidity_IsbL-0650_LatLon0.15_PT192H.grib2 2026-05-01 04:36 1.5M
20260501T00Z_MSC_GDPS_SpecificHumidity_IsbL-0700_LatLon0.15_PT192H.grib2 2026-05-01 04:36 1.6M
20260501T00Z_MSC_GDPS_SpecificHumidity_IsbL-0750_LatLon0.15_PT192H.grib2 2026-05-01 04:36 1.7M
20260501T00Z_MSC_GDPS_SpecificHumidity_IsbL-0800_LatLon0.15_PT192H.grib2 2026-05-01 04:36 1.9M
20260501T00Z_MSC_GDPS_SpecificHumidity_IsbL-0850_LatLon0.15_PT192H.grib2 2026-05-01 04:36 2.0M
20260501T00Z_MSC_GDPS_SpecificHumidity_IsbL-0875_LatLon0.15_PT192H.grib2 2026-05-01 04:36 2.0M
20260501T00Z_MSC_GDPS_SpecificHumidity_IsbL-0900_LatLon0.15_PT192H.grib2 2026-05-01 04:36 2.0M
20260501T00Z_MSC_GDPS_SpecificHumidity_IsbL-0925_LatLon0.15_PT192H.grib2 2026-05-01 04:36 1.6M
20260501T00Z_MSC_GDPS_SpecificHumidity_IsbL-0950_LatLon0.15_PT192H.grib2 2026-05-01 04:36 1.6M
20260501T00Z_MSC_GDPS_SpecificHumidity_IsbL-0970_LatLon0.15_PT192H.grib2 2026-05-01 04:36 1.5M
20260501T00Z_MSC_GDPS_SpecificHumidity_IsbL-0985_LatLon0.15_PT192H.grib2 2026-05-01 04:36 1.5M
20260501T00Z_MSC_GDPS_SpecificHumidity_IsbL-1000_LatLon0.15_PT192H.grib2 2026-05-01 04:36 1.5M
20260501T00Z_MSC_GDPS_SpecificHumidity_IsbL-1015_LatLon0.15_PT192H.grib2 2026-05-01 04:36 1.5M
20260501T00Z_MSC_GDPS_SpecificHumidity_Sfc_LatLon0.15_PT192H.grib2 2026-05-01 04:36 639K
20260501T00Z_MSC_GDPS_Thickness_IsbL-0850to0700_LatLon0.15_PT192H.grib2 2026-05-01 04:36 467K
20260501T00Z_MSC_GDPS_Thickness_IsbL-1000to0500_LatLon0.15_PT192H.grib2 2026-05-01 04:36 374K
20260501T00Z_MSC_GDPS_Thickness_IsbL-1000to0850_LatLon0.15_PT192H.grib2 2026-05-01 04:36 489K
20260501T00Z_MSC_GDPS_TotalCloudCover_Sfc_LatLon0.15_PT192H.grib2 2026-05-01 04:36 827K
20260501T00Z_MSC_GDPS_TotalTotalsIndex_Sfc_LatLon0.15_PT192H.grib2 2026-05-01 04:36 6.2M
20260501T00Z_MSC_GDPS_UVIndex-ClearSky_Sfc_LatLon0.15_PT192H.grib2 2026-05-01 04:51 1.0M
20260501T00Z_MSC_GDPS_UVIndex_Sfc_LatLon0.15_PT192H.grib2 2026-05-01 04:51 1.5M
20260501T00Z_MSC_GDPS_UpwardLongwaveRadiationFlux_NTAtm_LatLon0.15_PT192H.grib2 2026-05-01 04:36 834K
20260501T00Z_MSC_GDPS_VerticalVelocity_IsbL-0200_LatLon0.15_PT192H.grib2 2026-05-01 04:36 959K
20260501T00Z_MSC_GDPS_VerticalVelocity_IsbL-0250_LatLon0.15_PT192H.grib2 2026-05-01 04:36 855K
20260501T00Z_MSC_GDPS_VerticalVelocity_IsbL-0500_LatLon0.15_PT192H.grib2 2026-05-01 04:36 1.0M
20260501T00Z_MSC_GDPS_VerticalVelocity_IsbL-0600_LatLon0.15_PT192H.grib2 2026-05-01 04:36 1.1M
20260501T00Z_MSC_GDPS_VerticalVelocity_IsbL-0700_LatLon0.15_PT192H.grib2 2026-05-01 04:36 1.1M
20260501T00Z_MSC_GDPS_VerticalVelocity_IsbL-0850_LatLon0.15_PT192H.grib2 2026-05-01 04:36 1.3M
20260501T00Z_MSC_GDPS_WindChill_Sfc_LatLon0.15_PT192H.grib2 2026-05-01 04:36 5.3M
20260501T00Z_MSC_GDPS_WindDir_AGL-10m_LatLon0.15_PT192H.grib2 2026-05-01 04:36 1.3M
20260501T00Z_MSC_GDPS_WindDir_AGL-120m_LatLon0.15_PT192H.grib2 2026-05-01 04:36 1.3M
20260501T00Z_MSC_GDPS_WindDir_AGL-40m_LatLon0.15_PT192H.grib2 2026-05-01 04:36 1.4M
20260501T00Z_MSC_GDPS_WindDir_AGL-80m_LatLon0.15_PT192H.grib2 2026-05-01 04:36 1.4M
20260501T00Z_MSC_GDPS_WindDir_IsbL-0001_LatLon0.15_PT192H.grib2 2026-05-01 04:36 674K
20260501T00Z_MSC_GDPS_WindDir_IsbL-0005_LatLon0.15_PT192H.grib2 2026-05-01 04:36 816K
20260501T00Z_MSC_GDPS_WindDir_IsbL-0010_LatLon0.15_PT192H.grib2 2026-05-01 04:36 832K
20260501T00Z_MSC_GDPS_WindDir_IsbL-0020_LatLon0.15_PT192H.grib2 2026-05-01 04:36 938K
20260501T00Z_MSC_GDPS_WindDir_IsbL-0030_LatLon0.15_PT192H.grib2 2026-05-01 04:36 946K
20260501T00Z_MSC_GDPS_WindDir_IsbL-0050_LatLon0.15_PT192H.grib2 2026-05-01 04:36 950K
20260501T00Z_MSC_GDPS_WindDir_IsbL-0100_LatLon0.15_PT192H.grib2 2026-05-01 04:36 1.0M
20260501T00Z_MSC_GDPS_WindDir_IsbL-0150_LatLon0.15_PT192H.grib2 2026-05-01 04:36 1.0M
20260501T00Z_MSC_GDPS_WindDir_IsbL-0175_LatLon0.15_PT192H.grib2 2026-05-01 04:36 1.1M
20260501T00Z_MSC_GDPS_WindDir_IsbL-0200_LatLon0.15_PT192H.grib2 2026-05-01 04:36 1.1M
20260501T00Z_MSC_GDPS_WindDir_IsbL-0225_LatLon0.15_PT192H.grib2 2026-05-01 04:36 1.1M
20260501T00Z_MSC_GDPS_WindDir_IsbL-0250_LatLon0.15_PT192H.grib2 2026-05-01 04:36 1.1M
20260501T00Z_MSC_GDPS_WindDir_IsbL-0275_LatLon0.15_PT192H.grib2 2026-05-01 04:36 1.2M
20260501T00Z_MSC_GDPS_WindDir_IsbL-0300_LatLon0.15_PT192H.grib2 2026-05-01 04:36 1.2M
20260501T00Z_MSC_GDPS_WindDir_IsbL-0350_LatLon0.15_PT192H.grib2 2026-05-01 04:36 1.2M
20260501T00Z_MSC_GDPS_WindDir_IsbL-0400_LatLon0.15_PT192H.grib2 2026-05-01 04:36 1.3M
20260501T00Z_MSC_GDPS_WindDir_IsbL-0450_LatLon0.15_PT192H.grib2 2026-05-01 04:36 1.3M
20260501T00Z_MSC_GDPS_WindDir_IsbL-0500_LatLon0.15_PT192H.grib2 2026-05-01 04:36 1.4M
20260501T00Z_MSC_GDPS_WindDir_IsbL-0550_LatLon0.15_PT192H.grib2 2026-05-01 04:36 1.4M
20260501T00Z_MSC_GDPS_WindDir_IsbL-0600_LatLon0.15_PT192H.grib2 2026-05-01 04:36 1.4M
20260501T00Z_MSC_GDPS_WindDir_IsbL-0650_LatLon0.15_PT192H.grib2 2026-05-01 04:36 1.5M
20260501T00Z_MSC_GDPS_WindDir_IsbL-0700_LatLon0.15_PT192H.grib2 2026-05-01 04:36 1.6M
20260501T00Z_MSC_GDPS_WindDir_IsbL-0750_LatLon0.15_PT192H.grib2 2026-05-01 04:36 1.7M
20260501T00Z_MSC_GDPS_WindDir_IsbL-0800_LatLon0.15_PT192H.grib2 2026-05-01 04:36 1.8M
20260501T00Z_MSC_GDPS_WindDir_IsbL-0850_LatLon0.15_PT192H.grib2 2026-05-01 04:36 1.9M
20260501T00Z_MSC_GDPS_WindDir_IsbL-0875_LatLon0.15_PT192H.grib2 2026-05-01 04:36 1.9M
20260501T00Z_MSC_GDPS_WindDir_IsbL-0900_LatLon0.15_PT192H.grib2 2026-05-01 04:36 2.0M
20260501T00Z_MSC_GDPS_WindDir_IsbL-0925_LatLon0.15_PT192H.grib2 2026-05-01 04:36 2.0M
20260501T00Z_MSC_GDPS_WindDir_IsbL-0950_LatLon0.15_PT192H.grib2 2026-05-01 04:36 2.0M
20260501T00Z_MSC_GDPS_WindDir_IsbL-0970_LatLon0.15_PT192H.grib2 2026-05-01 04:36 2.0M
20260501T00Z_MSC_GDPS_WindDir_IsbL-0985_LatLon0.15_PT192H.grib2 2026-05-01 04:36 2.0M
20260501T00Z_MSC_GDPS_WindDir_IsbL-1000_LatLon0.15_PT192H.grib2 2026-05-01 04:36 2.1M
20260501T00Z_MSC_GDPS_WindDir_IsbL-1015_LatLon0.15_PT192H.grib2 2026-05-01 04:36 2.0M
20260501T00Z_MSC_GDPS_WindGust-Max_AGL-10m_LatLon0.15_PT192H.grib2 2026-05-01 04:36 2.2M
20260501T00Z_MSC_GDPS_WindGust-Min_AGL-10m_LatLon0.15_PT192H.grib2 2026-05-01 04:36 2.2M
20260501T00Z_MSC_GDPS_WindGust_AGL-10m_LatLon0.15_PT192H.grib2 2026-05-01 04:36 2.2M
20260501T00Z_MSC_GDPS_WindSpeed_AGL-10m_LatLon0.15_PT192H.grib2 2026-05-01 04:36 1.1M
20260501T00Z_MSC_GDPS_WindSpeed_AGL-120m_LatLon0.15_PT192H.grib2 2026-05-01 04:36 1.2M
20260501T00Z_MSC_GDPS_WindSpeed_AGL-40m_LatLon0.15_PT192H.grib2 2026-05-01 04:36 1.2M
20260501T00Z_MSC_GDPS_WindSpeed_AGL-80m_LatLon0.15_PT192H.grib2 2026-05-01 04:36 1.2M
20260501T00Z_MSC_GDPS_WindSpeed_IsbL-0001_LatLon0.15_PT192H.grib2 2026-05-01 04:36 656K
20260501T00Z_MSC_GDPS_WindSpeed_IsbL-0005_LatLon0.15_PT192H.grib2 2026-05-01 04:36 698K
20260501T00Z_MSC_GDPS_WindSpeed_IsbL-0010_LatLon0.15_PT192H.grib2 2026-05-01 04:36 629K
20260501T00Z_MSC_GDPS_WindSpeed_IsbL-0020_LatLon0.15_PT192H.grib2 2026-05-01 04:36 667K
20260501T00Z_MSC_GDPS_WindSpeed_IsbL-0030_LatLon0.15_PT192H.grib2 2026-05-01 04:36 671K
20260501T00Z_MSC_GDPS_WindSpeed_IsbL-0050_LatLon0.15_PT192H.grib2 2026-05-01 04:36 899K
20260501T00Z_MSC_GDPS_WindSpeed_IsbL-0100_LatLon0.15_PT192H.grib2 2026-05-01 04:36 1.1M
20260501T00Z_MSC_GDPS_WindSpeed_IsbL-0150_LatLon0.15_PT192H.grib2 2026-05-01 04:36 944K
20260501T00Z_MSC_GDPS_WindSpeed_IsbL-0175_LatLon0.15_PT192H.grib2 2026-05-01 04:36 1.0M
20260501T00Z_MSC_GDPS_WindSpeed_IsbL-0200_LatLon0.15_PT192H.grib2 2026-05-01 04:36 1.1M
20260501T00Z_MSC_GDPS_WindSpeed_IsbL-0225_LatLon0.15_PT192H.grib2 2026-05-01 04:36 1.1M
20260501T00Z_MSC_GDPS_WindSpeed_IsbL-0250_LatLon0.15_PT192H.grib2 2026-05-01 04:36 1.1M
20260501T00Z_MSC_GDPS_WindSpeed_IsbL-0275_LatLon0.15_PT192H.grib2 2026-05-01 04:36 1.1M
20260501T00Z_MSC_GDPS_WindSpeed_IsbL-0300_LatLon0.15_PT192H.grib2 2026-05-01 04:36 1.1M
20260501T00Z_MSC_GDPS_WindSpeed_IsbL-0350_LatLon0.15_PT192H.grib2 2026-05-01 04:36 1.1M
20260501T00Z_MSC_GDPS_WindSpeed_IsbL-0400_LatLon0.15_PT192H.grib2 2026-05-01 04:36 1.1M
20260501T00Z_MSC_GDPS_WindSpeed_IsbL-0450_LatLon0.15_PT192H.grib2 2026-05-01 04:36 1.1M
20260501T00Z_MSC_GDPS_WindSpeed_IsbL-0500_LatLon0.15_PT192H.grib2 2026-05-01 04:36 1.1M
20260501T00Z_MSC_GDPS_WindSpeed_IsbL-0550_LatLon0.15_PT192H.grib2 2026-05-01 04:36 1.1M
20260501T00Z_MSC_GDPS_WindSpeed_IsbL-0600_LatLon0.15_PT192H.grib2 2026-05-01 04:36 1.1M
20260501T00Z_MSC_GDPS_WindSpeed_IsbL-0650_LatLon0.15_PT192H.grib2 2026-05-01 04:36 1.2M
20260501T00Z_MSC_GDPS_WindSpeed_IsbL-0700_LatLon0.15_PT192H.grib2 2026-05-01 04:36 1.5M
20260501T00Z_MSC_GDPS_WindSpeed_IsbL-0750_LatLon0.15_PT192H.grib2 2026-05-01 04:36 1.6M
20260501T00Z_MSC_GDPS_WindSpeed_IsbL-0800_LatLon0.15_PT192H.grib2 2026-05-01 04:36 1.6M
20260501T00Z_MSC_GDPS_WindSpeed_IsbL-0850_LatLon0.15_PT192H.grib2 2026-05-01 04:36 1.7M
20260501T00Z_MSC_GDPS_WindSpeed_IsbL-0875_LatLon0.15_PT192H.grib2 2026-05-01 04:36 1.8M
20260501T00Z_MSC_GDPS_WindSpeed_IsbL-0900_LatLon0.15_PT192H.grib2 2026-05-01 04:36 1.8M
20260501T00Z_MSC_GDPS_WindSpeed_IsbL-0925_LatLon0.15_PT192H.grib2 2026-05-01 04:36 1.8M
20260501T00Z_MSC_GDPS_WindSpeed_IsbL-0950_LatLon0.15_PT192H.grib2 2026-05-01 04:36 1.8M
20260501T00Z_MSC_GDPS_WindSpeed_IsbL-0970_LatLon0.15_PT192H.grib2 2026-05-01 04:36 1.9M
20260501T00Z_MSC_GDPS_WindSpeed_IsbL-0985_LatLon0.15_PT192H.grib2 2026-05-01 04:36 1.9M
20260501T00Z_MSC_GDPS_WindSpeed_IsbL-1000_LatLon0.15_PT192H.grib2 2026-05-01 04:36 1.8M
20260501T00Z_MSC_GDPS_WindSpeed_IsbL-1015_LatLon0.15_PT192H.grib2 2026-05-01 04:36 1.8M
20260501T00Z_MSC_GDPS_WindU_AGL-10m_LatLon0.15_PT192H.grib2 2026-05-01 04:36 1.3M
20260501T00Z_MSC_GDPS_WindU_AGL-120m_LatLon0.15_PT192H.grib2 2026-05-01 04:36 1.0M
20260501T00Z_MSC_GDPS_WindU_AGL-40m_LatLon0.15_PT192H.grib2 2026-05-01 04:36 962K
20260501T00Z_MSC_GDPS_WindU_AGL-80m_LatLon0.15_PT192H.grib2 2026-05-01 04:36 1.0M
20260501T00Z_MSC_GDPS_WindU_IsbL-0001_LatLon0.15_PT192H.grib2 2026-05-01 04:36 510K
20260501T00Z_MSC_GDPS_WindU_IsbL-0005_LatLon0.15_PT192H.grib2 2026-05-01 04:36 697K
20260501T00Z_MSC_GDPS_WindU_IsbL-0010_LatLon0.15_PT192H.grib2 2026-05-01 04:36 705K
20260501T00Z_MSC_GDPS_WindU_IsbL-0020_LatLon0.15_PT192H.grib2 2026-05-01 04:36 733K
20260501T00Z_MSC_GDPS_WindU_IsbL-0030_LatLon0.15_PT192H.grib2 2026-05-01 04:36 740K
20260501T00Z_MSC_GDPS_WindU_IsbL-0050_LatLon0.15_PT192H.grib2 2026-05-01 04:36 765K
20260501T00Z_MSC_GDPS_WindU_IsbL-0100_LatLon0.15_PT192H.grib2 2026-05-01 04:36 927K
20260501T00Z_MSC_GDPS_WindU_IsbL-0150_LatLon0.15_PT192H.grib2 2026-05-01 04:36 1.0M
20260501T00Z_MSC_GDPS_WindU_IsbL-0175_LatLon0.15_PT192H.grib2 2026-05-01 04:36 1.0M
20260501T00Z_MSC_GDPS_WindU_IsbL-0200_LatLon0.15_PT192H.grib2 2026-05-01 04:36 1.0M
20260501T00Z_MSC_GDPS_WindU_IsbL-0225_LatLon0.15_PT192H.grib2 2026-05-01 04:36 851K
20260501T00Z_MSC_GDPS_WindU_IsbL-0250_LatLon0.15_PT192H.grib2 2026-05-01 04:36 853K
20260501T00Z_MSC_GDPS_WindU_IsbL-0275_LatLon0.15_PT192H.grib2 2026-05-01 04:36 882K
20260501T00Z_MSC_GDPS_WindU_IsbL-0300_LatLon0.15_PT192H.grib2 2026-05-01 04:36 874K
20260501T00Z_MSC_GDPS_WindU_IsbL-0350_LatLon0.15_PT192H.grib2 2026-05-01 04:36 890K
20260501T00Z_MSC_GDPS_WindU_IsbL-0400_LatLon0.15_PT192H.grib2 2026-05-01 04:36 1.1M
20260501T00Z_MSC_GDPS_WindU_IsbL-0450_LatLon0.15_PT192H.grib2 2026-05-01 04:36 1.1M
20260501T00Z_MSC_GDPS_WindU_IsbL-0500_LatLon0.15_PT192H.grib2 2026-05-01 04:36 1.1M
20260501T00Z_MSC_GDPS_WindU_IsbL-0550_LatLon0.15_PT192H.grib2 2026-05-01 04:36 1.1M
20260501T00Z_MSC_GDPS_WindU_IsbL-0600_LatLon0.15_PT192H.grib2 2026-05-01 04:36 1.1M
20260501T00Z_MSC_GDPS_WindU_IsbL-0650_LatLon0.15_PT192H.grib2 2026-05-01 04:36 1.2M
20260501T00Z_MSC_GDPS_WindU_IsbL-0700_LatLon0.15_PT192H.grib2 2026-05-01 04:36 1.2M
20260501T00Z_MSC_GDPS_WindU_IsbL-0750_LatLon0.15_PT192H.grib2 2026-05-01 04:36 1.3M
20260501T00Z_MSC_GDPS_WindU_IsbL-0800_LatLon0.15_PT192H.grib2 2026-05-01 04:36 1.3M
20260501T00Z_MSC_GDPS_WindU_IsbL-0850_LatLon0.15_PT192H.grib2 2026-05-01 04:36 1.4M
20260501T00Z_MSC_GDPS_WindU_IsbL-0875_LatLon0.15_PT192H.grib2 2026-05-01 04:36 1.4M
20260501T00Z_MSC_GDPS_WindU_IsbL-0900_LatLon0.15_PT192H.grib2 2026-05-01 04:36 1.5M
20260501T00Z_MSC_GDPS_WindU_IsbL-0925_LatLon0.15_PT192H.grib2 2026-05-01 04:36 1.5M
20260501T00Z_MSC_GDPS_WindU_IsbL-0950_LatLon0.15_PT192H.grib2 2026-05-01 04:36 1.4M
20260501T00Z_MSC_GDPS_WindU_IsbL-0970_LatLon0.15_PT192H.grib2 2026-05-01 04:36 1.4M
20260501T00Z_MSC_GDPS_WindU_IsbL-0985_LatLon0.15_PT192H.grib2 2026-05-01 04:36 1.4M
20260501T00Z_MSC_GDPS_WindU_IsbL-1000_LatLon0.15_PT192H.grib2 2026-05-01 04:36 1.4M
20260501T00Z_MSC_GDPS_WindU_IsbL-1015_LatLon0.15_PT192H.grib2 2026-05-01 04:36 1.3M
20260501T00Z_MSC_GDPS_WindV_AGL-10m_LatLon0.15_PT192H.grib2 2026-05-01 04:36 1.6M
20260501T00Z_MSC_GDPS_WindV_AGL-120m_LatLon0.15_PT192H.grib2 2026-05-01 04:36 969K
20260501T00Z_MSC_GDPS_WindV_AGL-40m_LatLon0.15_PT192H.grib2 2026-05-01 04:36 961K
20260501T00Z_MSC_GDPS_WindV_AGL-80m_LatLon0.15_PT192H.grib2 2026-05-01 04:36 969K
20260501T00Z_MSC_GDPS_WindV_IsbL-0001_LatLon0.15_PT192H.grib2 2026-05-01 04:36 792K
20260501T00Z_MSC_GDPS_WindV_IsbL-0005_LatLon0.15_PT192H.grib2 2026-05-01 04:36 774K
20260501T00Z_MSC_GDPS_WindV_IsbL-0010_LatLon0.15_PT192H.grib2 2026-05-01 04:36 799K
20260501T00Z_MSC_GDPS_WindV_IsbL-0020_LatLon0.15_PT192H.grib2 2026-05-01 04:36 851K
20260501T00Z_MSC_GDPS_WindV_IsbL-0030_LatLon0.15_PT192H.grib2 2026-05-01 04:36 939K
20260501T00Z_MSC_GDPS_WindV_IsbL-0050_LatLon0.15_PT192H.grib2 2026-05-01 04:36 1.0M
20260501T00Z_MSC_GDPS_WindV_IsbL-0100_LatLon0.15_PT192H.grib2 2026-05-01 04:36 1.1M
20260501T00Z_MSC_GDPS_WindV_IsbL-0150_LatLon0.15_PT192H.grib2 2026-05-01 04:36 1.0M
20260501T00Z_MSC_GDPS_WindV_IsbL-0175_LatLon0.15_PT192H.grib2 2026-05-01 04:36 1.0M
20260501T00Z_MSC_GDPS_WindV_IsbL-0200_LatLon0.15_PT192H.grib2 2026-05-01 04:36 841K
20260501T00Z_MSC_GDPS_WindV_IsbL-0225_LatLon0.15_PT192H.grib2 2026-05-01 04:36 907K
20260501T00Z_MSC_GDPS_WindV_IsbL-0250_LatLon0.15_PT192H.grib2 2026-05-01 04:36 908K
20260501T00Z_MSC_GDPS_WindV_IsbL-0275_LatLon0.15_PT192H.grib2 2026-05-01 04:36 936K
20260501T00Z_MSC_GDPS_WindV_IsbL-0300_LatLon0.15_PT192H.grib2 2026-05-01 04:36 926K
20260501T00Z_MSC_GDPS_WindV_IsbL-0350_LatLon0.15_PT192H.grib2 2026-05-01 04:36 881K
20260501T00Z_MSC_GDPS_WindV_IsbL-0400_LatLon0.15_PT192H.grib2 2026-05-01 04:36 882K
20260501T00Z_MSC_GDPS_WindV_IsbL-0450_LatLon0.15_PT192H.grib2 2026-05-01 04:36 885K
20260501T00Z_MSC_GDPS_WindV_IsbL-0500_LatLon0.15_PT192H.grib2 2026-05-01 04:36 1.1M
20260501T00Z_MSC_GDPS_WindV_IsbL-0550_LatLon0.15_PT192H.grib2 2026-05-01 04:36 1.1M
20260501T00Z_MSC_GDPS_WindV_IsbL-0600_LatLon0.15_PT192H.grib2 2026-05-01 04:36 1.1M
20260501T00Z_MSC_GDPS_WindV_IsbL-0650_LatLon0.15_PT192H.grib2 2026-05-01 04:36 1.2M
20260501T00Z_MSC_GDPS_WindV_IsbL-0700_LatLon0.15_PT192H.grib2 2026-05-01 04:36 1.2M
20260501T00Z_MSC_GDPS_WindV_IsbL-0750_LatLon0.15_PT192H.grib2 2026-05-01 04:36 1.3M
20260501T00Z_MSC_GDPS_WindV_IsbL-0800_LatLon0.15_PT192H.grib2 2026-05-01 04:36 1.3M
20260501T00Z_MSC_GDPS_WindV_IsbL-0850_LatLon0.15_PT192H.grib2 2026-05-01 04:36 1.4M
20260501T00Z_MSC_GDPS_WindV_IsbL-0875_LatLon0.15_PT192H.grib2 2026-05-01 04:36 1.4M
20260501T00Z_MSC_GDPS_WindV_IsbL-0900_LatLon0.15_PT192H.grib2 2026-05-01 04:36 1.5M
20260501T00Z_MSC_GDPS_WindV_IsbL-0925_LatLon0.15_PT192H.grib2 2026-05-01 04:36 1.5M
20260501T00Z_MSC_GDPS_WindV_IsbL-0950_LatLon0.15_PT192H.grib2 2026-05-01 04:36 1.4M
20260501T00Z_MSC_GDPS_WindV_IsbL-0970_LatLon0.15_PT192H.grib2 2026-05-01 04:36 1.4M
20260501T00Z_MSC_GDPS_WindV_IsbL-0985_LatLon0.15_PT192H.grib2 2026-05-01 04:36 1.4M
20260501T00Z_MSC_GDPS_WindV_IsbL-1000_LatLon0.15_PT192H.grib2 2026-05-01 04:36 1.7M
20260501T00Z_MSC_GDPS_WindV_IsbL-1015_LatLon0.15_PT192H.grib2 2026-05-01 04:36 1.6M